Terminal Aerodrome Forecast
Issued by NWS

Home | Current Version | Previous Version | Text Only | Print | Product List | Glossary On
Versions: 1 2 3 4 5 6 7 8 9 10 11 12 13 14 15 16 17 18 19 20 21 22 23 24 25 26 27 28 29 30 31 32 33 34 35 36 37 38 39 40 41
000
FTAK31 PANC 242331
TAFAVD
TAF
PAVD 242331Z 2500/2524 VRB03KT 6SM -SN BKN035
      TEMPO 2500/2503 4SM -SN BKN025
     FM250300 VRB03KT 3SM -SN BR OVC020
     FM250600 VRB03KT 1 1/2SM -SN BR OVC015
     FM251000 VRB03KT 5SM -SN BR SCT015 OVC030
     FM251900 VRB03KT 3/4SM -SN BR BKN015
      AMD LTD TO CLD VIS AND WIND=

USA.gov is the U.S. government's official web portal to all federal, state and local government web resources and services.